Hourly Weather Altdorf

Today, 29 July, Thursday

Time Temperature Precipitation Wind Pressure Humidity
00:00 +6°C° 0 mm 1 mps 583 mmHg 93%
01:00 +6°C° 0 mm 1 mps 583 mmHg 93%
02:00 +6°C° 0 mm 1 mps 583 mmHg 92%
03:00 +6°C° 0 mm 1 mps 583 mmHg 92%
04:00 +6°C° 0 mm 1 mps 583 mmHg 92%
05:00 +7°C° 0 mm 1 mps 583 mmHg 89%
06:00 +8°C° 0 mm 1 mps 584 mmHg 86%
07:00 +9°C° 0 mm 0 mps 585 mmHg 83%
08:00 +11°C° 0 mm 1 mps 585 mmHg 76%
09:00 +13°C° 0 mm 1 mps 586 mmHg 69%
10:00 +14°C° 0 mm 1 mps 586 mmHg 62%
11:00 +15°C° 0 mm 1 mps 586 mmHg 59%
12:00 +16°C° 0 mm 2 mps 586 mmHg 56%
13:00 +16°C° 0 mm 2 mps 587 mmHg 53%
14:00 +16°C° 0.1 mm 2 mps 586 mmHg 57%
15:00 +16°C° 0.1 mm 2 mps 586 mmHg 60%
16:00 +16°C° 0.1 mm 2 mps 586 mmHg 63%
17:00 +15°C° 0.2 mm 1 mps 586 mmHg 71%
18:00 +14°C° 0.2 mm 1 mps 585 mmHg 78%
19:00 +13°C° 0.2 mm 1 mps 585 mmHg 86%
20:00 +11°C° 0.2 mm 1 mps 585 mmHg 87%
21:00 +10°C° 0.2 mm 1 mps 584 mmHg 88%
22:00 +9°C° 0.2 mm 1 mps 584 mmHg 89%
23:00 +9°C° 0 mm 1 mps 584 mmHg 86%

Tomorrow, 30 July, Friday

Time Temperature Precipitation Wind Pressure Humidity
00:00 +9°C° 0 mm 1 mps 583 mmHg 83%
01:00 +9°C° 0 mm 1 mps 583 mmHg 81%
02:00 +9°C° 0.1 mm 1 mps 583 mmHg 80%
03:00 +9°C° 0.1 mm 1 mps 583 mmHg 80%
04:00 +9°C° 0.1 mm 1 mps 583 mmHg 79%
05:00 +10°C° 0 mm 1 mps 583 mmHg 78%
06:00 +11°C° 0 mm 1 mps 584 mmHg 77%
07:00 +12°C° 0 mm 1 mps 584 mmHg 75%
08:00 +13°C° 0.1 mm 1 mps 585 mmHg 70%
09:00 +14°C° 0.1 mm 1 mps 585 mmHg 65%
10:00 +16°C° 0.1 mm 1 mps 586 mmHg 60%
11:00 +16°C° 0.3 mm 1 mps 586 mmHg 58%
12:00 +17°C° 0.3 mm 2 mps 586 mmHg 56%
13:00 +18°C° 0.3 mm 2 mps 586 mmHg 54%
14:00 +16°C° 2.1 mm 2 mps 585 mmHg 64%
15:00 +15°C° 2.1 mm 2 mps 585 mmHg 74%
16:00 +13°C° 2.1 mm 2 mps 584 mmHg 84%
17:00 +13°C° 1.7 mm 1 mps 584 mmHg 85%
18:00 +12°C° 1.7 mm 1 mps 584 mmHg 86%
19:00 +12°C° 1.7 mm 1 mps 584 mmHg 87%
20:00 +11°C° 0.4 mm 1 mps 583 mmHg 88%
21:00 +10°C° 0.4 mm 1 mps 583 mmHg 89%
22:00 +9°C° 0.4 mm 1 mps 583 mmHg 90%
23:00 +9°C° 0.1 mm 1 mps 582 mmHg 89%

Day after tomorrow, 31 July, Saturday

Time Temperature Precipitation Wind Pressure Humidity
00:00 +9°C° 0.1 mm 1 mps 582 mmHg 88%
01:00 +9°C° 0.1 mm 1 mps 582 mmHg 87%
02:00 +9°C° 0 mm 1 mps 582 mmHg 88%
03:00 +8°C° 0 mm 1 mps 581 mmHg 89%
04:00 +8°C° 0 mm 1 mps 581 mmHg 90%
05:00 +8°C° 0 mm 1 mps 581 mmHg 89%
06:00 +9°C° 0 mm 1 mps 581 mmHg 88%
07:00 +10°C° 0 mm 1 mps 582 mmHg 87%
08:00 +11°C° 0.1 mm 1 mps 582 mmHg 83%
09:00 +12°C° 0.1 mm 1 mps 582 mmHg 80%
10:00 +12°C° 0.1 mm 1 mps 583 mmHg 76%
11:00 +13°C° 0.3 mm 1 mps 583 mmHg 74%
12:00 +13°C° 0.3 mm 1 mps 583 mmHg 72%
13:00 +14°C° 0.3 mm 1 mps 583 mmHg 71%
14:00 +14°C° 0.7 mm 1 mps 583 mmHg 73%
15:00 +14°C° 0.7 mm 1 mps 583 mmHg 76%
16:00 +13°C° 0.7 mm 1 mps 582 mmHg 78%
17:00 +12°C° 2 mm 1 mps 582 mmHg 83%
18:00 +11°C° 2 mm 1 mps 581 mmHg 88%
19:00 +9°C° 2 mm 2 mps 580 mmHg 93%
20:00 +9°C° 2.9 mm 1 mps 580 mmHg 94%
21:00 +9°C° 2.9 mm 1 mps 580 mmHg 95%
22:00 +8°C° 2.9 mm 1 mps 580 mmHg 97%
23:00 +8°C° 0.6 mm 1 mps 580 mmHg 96%

1 August, Sunday

Time Temperature Precipitation Wind Pressure Humidity
00:00 +8°C° 0.6 mm 1 mps 579 mmHg 96%
01:00 +8°C° 0.6 mm 1 mps 579 mmHg 95%
02:00 +7°C° 1.2 mm 1 mps 579 mmHg 95%
03:00 +7°C° 1.2 mm 1 mps 578 mmHg 96%
04:00 +6°C° 1.2 mm 2 mps 578 mmHg 96%
05:00 +6°C° 1.4 mm 2 mps 578 mmHg 95%
06:00 +6°C° 1.4 mm 2 mps 578 mmHg 95%
07:00 +6°C° 1.4 mm 2 mps 578 mmHg 94%
08:00 +6°C° 0.9 mm 2 mps 578 mmHg 93%
09:00 +6°C° 0.9 mm 2 mps 579 mmHg 93%
10:00 +6°C° 0.9 mm 2 mps 579 mmHg 93%
11:00 +5°C° 1.5 mm 2 mps 579 mmHg 93%
12:00 +5°C° 1.5 mm 2 mps 579 mmHg 93%
13:00 +5°C° 1.5 mm 2 mps 579 mmHg 94%
14:00 +5°C° 0.8 mm 2 mps 579 mmHg 93%
15:00 +5°C° 0.8 mm 2 mps 580 mmHg 91%
16:00 +6°C° 0.8 mm 2 mps 580 mmHg 90%
17:00 +5°C° 0.4 mm 2 mps 580 mmHg 90%
18:00 +5°C° 0.4 mm 2 mps 580 mmHg 90%
19:00 +5°C° 0.4 mm 2 mps 580 mmHg 91%
20:00 +4°C° 0 mm 2 mps 580 mmHg 90%
21:00 +3°C° 0 mm 2 mps 580 mmHg 90%
22:00 +3°C° 0 mm 2 mps 580 mmHg 89%
23:00 +3°C° 0 mm 2 mps 580 mmHg 89%

2 August, Monday

Time Temperature Precipitation Wind Pressure Humidity
00:00 +2°C° 0 mm 2 mps 580 mmHg 90%
01:00 +2°C° 0 mm 2 mps 580 mmHg 90%
02:00 +2°C° 0 mm 2 mps 580 mmHg 90%
03:00 +2°C° 0 mm 2 mps 580 mmHg 89%
04:00 +2°C° 0 mm 2 mps 580 mmHg 89%
05:00 +3°C° 0 mm 2 mps 580 mmHg 87%
06:00 +4°C° 0 mm 2 mps 581 mmHg 84%
07:00 +4°C° 0 mm 2 mps 581 mmHg 81%
08:00 +6°C° 0 mm 2 mps 582 mmHg 76%
09:00 +8°C° 0 mm 1 mps 583 mmHg 71%
10:00 +9°C° 0 mm 1 mps 583 mmHg 65%
11:00 +10°C° 0 mm 1 mps 584 mmHg 62%
12:00 +10°C° 0 mm 1 mps 584 mmHg 59%
13:00 +11°C° 0 mm 1 mps 584 mmHg 56%
14:00 +11°C° 0 mm 1 mps 584 mmHg 58%
15:00 +11°C° 0 mm 1 mps 584 mmHg 59%
16:00 +11°C° 0 mm 1 mps 584 mmHg 61%
17:00 +11°C° 0.1 mm 1 mps 584 mmHg 67%
18:00 +10°C° 0.1 mm 1 mps 584 mmHg 74%
19:00 +8°C° 0.1 mm 0 mps 584 mmHg 80%
20:00 +7°C° 0.1 mm 0 mps 583 mmHg 83%
21:00 +6°C° 0.1 mm 0 mps 583 mmHg 86%
22:00 +4°C° 0.1 mm 0 mps 583 mmHg 89%
23:00 +5°C° 0.1 mm 1 mps 583 mmHg 89%

3 August, Tuesday

Time Temperature Precipitation Wind Pressure Humidity
00:00 +5°C° 0.1 mm 1 mps 582 mmHg 89%
01:00 +5°C° 0.1 mm 1 mps 582 mmHg 89%
02:00 +5°C° 0 mm 1 mps 582 mmHg 89%
03:00 +4°C° 0 mm 1 mps 582 mmHg 88%
04:00 +4°C° 0 mm 1 mps 582 mmHg 88%
05:00 +5°C° 0 mm 1 mps 582 mmHg 87%
06:00 +7°C° 0 mm 1 mps 583 mmHg 86%
07:00 +8°C° 0 mm 1 mps 583 mmHg 85%
08:00 +9°C° 0.1 mm 1 mps 583 mmHg 80%
09:00 +9°C° 0.1 mm 2 mps 584 mmHg 75%
10:00 +10°C° 0.1 mm 2 mps 584 mmHg 70%
11:00 +9°C° 0.6 mm 2 mps 583 mmHg 76%
12:00 +9°C° 0.6 mm 2 mps 583 mmHg 81%
13:00 +8°C° 0.6 mm 2 mps 583 mmHg 86%
14:00 +8°C° 1.3 mm 2 mps 583 mmHg 89%
15:00 +8°C° 1.3 mm 1 mps 583 mmHg 92%
16:00 +8°C° 1.3 mm 1 mps 583 mmHg 95%
17:00 +8°C° 0.6 mm 1 mps 583 mmHg 94%
18:00 +8°C° 0.6 mm 1 mps 583 mmHg 93%
19:00 +8°C° 0.6 mm 1 mps 583 mmHg 91%
20:00 +7°C° 0.1 mm 1 mps 583 mmHg 91%
21:00 +7°C° 0.1 mm 1 mps 583 mmHg 92%
22:00 +5°C° 0.1 mm 2 mps 583 mmHg 92%
23:00 +5°C° 0 mm 2 mps 583 mmHg 92%
Show more

We Need Your Consent

Meteoprog and our Service Providers may store and access personal data such as cookies, device identifiers or other similar technologies on your device and process such data to personalise content and ads, as well as provide social media features and to analyse the traffic.

  • Store and/or access information on your device

    Cookies, device identifiers or other information can be stored or accessed on your device for the purposes indicated above.

  • Personalised ads and content, ad and content measurement, audience insights, and products development

    Ads and content can be personalised based on a profile. More data can be added to better personalise ads and content. Ad and content performance can be measured. Insights about the audience who saw the ads and content can be derived. Such data can be used to develop or improve user’s experience, systems and software.

By clicking ‘I Agree’ you will allow the use of indicated cookies, device identifiers, web beacons or other similar technologies. Your settings can be changed in the browser on your device.

For certain purposes, legitimate interests may be relied on, rather than consent. You can read more about this in our Privacy and Cookie Policy.